TimeEDT,TemperatureF,Dew PointF,Humidity,Sea Level PressureIn,VisibilityMPH,Wind Direction,Wind SpeedMPH,Gust SpeedMPH,PrecipitationIn,Events,Conditions,WindDirDegrees,DateUTC
12:53 AM,73.9,72.0,93,30.24,10.0,SSE,3.5,-,N/A,,Clear,150,2013-07-05 04:53:00
1:53 AM,73.9,72.0,93,30.24,9.0,SE,4.6,-,N/A,,Clear,140,2013-07-05 05:53:00
2:53 AM,73.0,72.0,96,30.22,7.0,ESE,5.8,-,N/A,,Clear,120,2013-07-05 06:53:00
3:53 AM,73.0,72.0,96,30.22,8.0,Calm,Calm,-,N/A,,Clear,0,2013-07-05 07:53:00
4:26 AM,73.4,71.6,94,30.23,7.0,Calm,Calm,-,N/A,,Partly Cloudy,0,2013-07-05 08:26:00
4:51 AM,71.6,71.6,100,30.24,4.0,Calm,Calm,-,N/A,,Mostly Cloudy,0,2013-07-05 08:51:00
4:53 AM,72.0,71.1,97,30.22,2.0,Calm,Calm,-,N/A,,Mostly Cloudy,0,2013-07-05 08:53:00
5:00 AM,71.6,71.6,100,30.24,1.0,Calm,Calm,-,N/A,,Mostly Cloudy,0,2013-07-05 09:00:00
5:11 AM,71.6,71.6,100,30.24,0.8,Calm,Calm,-,N/A,,Overcast,0,2013-07-05 09:11:00
5:49 AM,71.6,71.6,100,30.24,0.2,Calm,Calm,-,N/A,Fog,Fog,0,2013-07-05 09:49:00
5:53 AM,72.0,71.1,97,30.23,0.2,Calm,Calm,-,N/A,Fog,Fog,0,2013-07-05 09:53:00
6:12 AM,71.6,71.6,100,30.25,0.2,Calm,Calm,-,N/A,Fog,Fog,0,2013-07-05 10:12:00
6:22 AM,71.6,71.6,100,30.25,0.8,Calm,Calm,-,N/A,,Mist,0,2013-07-05 10:22:00
6:38 AM,71.6,71.6,100,30.25,0.2,Calm,Calm,-,N/A,Fog,Fog,0,2013-07-05 10:38:00
6:53 AM,72.0,72.0,100,30.24,0.2,ESE,4.6,-,N/A,Fog,Fog,120,2013-07-05 10:53:00
7:53 AM,73.9,73.0,97,30.25,0.8,SSE,5.8,-,0.01,,Mist,150,2013-07-05 11:53:00
8:00 AM,73.4,73.4,100,30.27,2.0,SSE,4.6,-,N/A,,Overcast,160,2013-07-05 12:00:00
8:18 AM,75.2,73.4,94,30.28,5.0,SSE,4.6,-,N/A,,Overcast,160,2013-07-05 12:18:00
8:53 AM,75.9,73.9,94,30.26,10.0,South,5.8,-,N/A,,Overcast,170,2013-07-05 12:53:00
9:15 AM,78.8,75.2,89,30.28,10.0,SSE,5.8,-,N/A,,Mostly Cloudy,150,2013-07-05 13:15:00
9:23 AM,80.6,75.2,84,30.28,10.0,SE,8.1,-,N/A,,Mostly Cloudy,140,2013-07-05 13:23:00
9:30 AM,80.6,73.4,79,30.27,10.0,SSE,5.8,-,N/A,,Mostly Cloudy,150,2013-07-05 13:30:00
9:53 AM,82.0,73.9,76,30.26,10.0,SSE,5.8,-,N/A,,Partly Cloudy,150,2013-07-05 13:53:00
10:53 AM,84.0,73.0,69,30.26,10.0,SSE,5.8,-,N/A,,Partly Cloudy,150,2013-07-05 14:53:00
11:53 AM,86.0,73.0,65,30.25,10.0,ESE,6.9,-,N/A,,Clear,110,2013-07-05 15:53:00
12:53 PM,89.1,72.0,57,30.24,10.0,SE,8.1,-,N/A,,Scattered Clouds,140,2013-07-05 16:53:00
1:53 PM,88.0,71.1,57,30.22,10.0,SE,8.1,-,N/A,,Partly Cloudy,130,2013-07-05 17:53:00
2:53 PM,80.1,73.9,81,30.23,10.0,SE,10.4,-,0.01,Rain,Light Rain,140,2013-07-05 18:53:00
3:53 PM,84.9,73.0,67,30.19,10.0,SSE,10.4,-,0.00,,Scattered Clouds,150,2013-07-05 19:53:00
4:53 PM,86.0,73.9,67,30.17,10.0,ESE,10.4,17.3,N/A,,Partly Cloudy,120,2013-07-05 20:53:00
5:39 PM,80.6,73.4,79,30.18,1.0,ESE,3.5,23.0,0.14,Rain,Light Rain,110,2013-07-05 21:39:00
5:50 PM,82.4,73.4,74,30.18,10.0,SE,4.6,-,0.14,,Scattered Clouds,140,2013-07-05 21:50:00
5:53 PM,82.0,73.9,76,30.17,10.0,SE,4.6,-,0.14,,Scattered Clouds,130,2013-07-05 21:53:00
6:53 PM,82.9,75.0,77,30.17,10.0,ESE,9.2,-,N/A,,Mostly Cloudy,110,2013-07-05 22:53:00
7:53 PM,81.0,75.9,85,30.18,10.0,SE,5.8,-,N/A,,Clear,140,2013-07-05 23:53:00
8:53 PM,79.0,73.0,82,30.19,10.0,SSE,9.2,-,N/A,,Clear,160,2013-07-06 00:53:00
9:53 PM,78.1,73.0,84,30.23,10.0,South,6.9,-,N/A,,Clear,180,2013-07-06 01:53:00
10:53 PM,77.0,73.0,88,30.24,10.0,SSE,4.6,-,N/A,,Clear,160,2013-07-06 02:53:00
11:53 PM,75.9,73.0,91,30.24,10.0,South,3.5,-,N/A,,Clear,170,2013-07-06 03:53:00